User: anonymous   Login
Location: Unspecified
(0.0000°N, 0.0000°E)
Time: 03:24:23
(UTC+00:00)
Language:

Tiangong 2 - Orbit

View from above orbital plane
View from above orbital plane
View from above satellite
View from above satellite

Ground track
Ground track

The orbit data is extracted from the following two-line orbital elements,

1 41765U 16057A   17086.55217514 +.00007405 +00000-0 +83240-4 0  9991
2 41765 042.7836 121.5816 0006752 039.8545 089.7664 15.63066158030221
Epoch (UTC): 27 March 2017 13:15:07
Eccentricity: 0.0006752
inclination: 42.7836°
perigee height: 374 km
apogee height: 383 km
right ascension of ascending node: 121.5816°
argument of perigee: 39.8545°
revolutions per day: 15.63066158
mean anomaly at epoch: 89.7664°
orbit number at epoch: 3022

The dashed part of the orbit path shows where the satellite is in the earth's shadow,  

DLR